#timestamp,LO_Frequency,Hit,StdDev 
1514952015.6,286046998.2,N
1514952035.4,286046999.7,N
1514952055.3,286047003.6,N
1514952075.1,286047003.8,N
1514952095.9,286046999.8,N
1514952115.7,286047002.8,N
1514952135.5,286047000.3,N
1514952155.4,286047001.0,N
1514952175.2,286046998.6,N
1514952195.1,286046998.4,N
1514952196.0,286046998.4,N
1514952215.8,286046998.6,N
1514952235.6,286046998.6,N
1514952255.5,286046999.3,N
1514952275.3,286047000.6,N
1514952295.1,286046999.8,N
1514952315.9,286047002.8,N
1514952335.7,286047002.1,N
1514952355.6,286046999.7,N
1514952375.4,286047002.1,N
1514952395.2,286047002.2,N
1514952415.1,286047000.1,N
1514952416.0,286047000.1,N
1514952435.8,286047001.6,N
1514952455.7,286047001.0,N
1514952475.5,286047004.3,N
1514952495.3,286047001.3,N
1514952515.2,286046999.7,N
1514952535.0,286047004.0,N
1514952535.9,286047004.0,N
1514952555.8,286047001.2,N
1514952575.6,286047000.1,N
1514952595.4,286047001.0,N
1514952615.3,286047000.1,N
1514952635.1,286046999.8,N
1514952655.8,286047002.0,N
1514952675.7,286047005.1,Y
1514952695.5,286047003.9,P
1514952715.4,286047004.3,N
1514952735.2,286047003.0,N
1514952755.0,286047001.4,N
1514952755.9,286047001.4,N
1514952775.8,286047000.5,N
1514952795.6,286047000.0,N
1514952815.5,286047002.8,N
1514952835.3,286047002.1,N
1514952855.1,286047000.3,N
1514952875.9,286046998.8,N
1514952895.7,286047000.0,N
1514952915.6,286047002.1,N
1514952935.4,286047002.3,N
1514952955.2,286046998.1,N
1514952975.1,286047004.4,N
1514952976.0,286047004.4,N
1514952995.8,286047005.2,N
1514953015.7,286047007.2,Y
1514953035.5,286047001.5,P
1514953055.3,286047004.0,P
1514953075.2,286047001.7,N
1514953095.0,286047001.3,N
1514953095.9,286047001.3,N
1514953115.7,286047001.9,N
1514953135.6,286047000.1,N
1514953155.4,286047000.6,N
1514953175.3,286047002.7,N
1514953195.1,286047001.8,N
1514953215.8,286047005.7,Y
1514953235.7,286047001.7,P
1514953255.5,286047002.0,P
1514953275.4,286046999.7,N
1514953295.2,286046998.1,N
1514953315.0,286046996.9,N
1514953315.9,286046996.9,N
1514953335.8,286047000.1,N
1514953355.6,286047001.9,N
1514953375.5,286047004.4,N
1514953395.3,286047003.4,N
1514953415.1,286047003.9,N
1514953435.9,286047005.6,N
1514953455.7,286047003.2,N
1514953475.5,286047002.0,N
1514953495.4,286047001.6,N
1514953515.2,286047001.9,N
1514953535.1,286046999.2,N
1514953536.0,286046999.2,N
1514953555.8,286046996.9,N
1514953575.6,286046997.1,N
1514953595.5,286046997.8,N
1514953615.3,286046997.3,N
1514953635.1,286046996.5,N
1514953655.9,286046998.2,N
1514953675.7,286046998.8,N
1514953695.6,286046996.9,N
1514953715.4,286046998.3,N
1514953735.2,286046999.9,N
1514953755.1,286047002.8,N
1514953756.0,286047002.8,N
1514953775.8,286047001.9,N
1514953795.7,286047004.3,N
1514953815.5,286046999.9,N
1514953835.3,286047000.1,N
1514953855.2,286047003.8,N
1514953875.0,286047003.6,N
1514953875.9,286047003.6,N
1514953895.8,286047004.3,N
1514953915.6,286047004.3,N
1514953935.4,286047007.2,N
1514953955.3,286047007.6,N
1514953975.1,286047003.1,N
1514953995.8,286047005.6,N
1514954015.7,286047001.4,N
1514954035.5,286046998.3,N
1514954055.4,286047002.6,N
1514954075.2,286047003.6,N
1514954095.0,286047004.3,N
1514954095.9,286047004.3,N
1514954115.8,286047003.6,N
1514954135.6,286047004.2,N
1514954155.5,286047003.7,N
1514954175.3,286047001.7,N
1514954195.1,286047001.6,N
1514954215.9,286047001.4,N
1514954235.7,286047002.0,N
1514954255.5,286047001.5,N
1514954275.4,286047002.6,N
1514954295.2,286047004.3,N
1514954315.1,286047004.3,N
1514954316.0,286047004.3,N
1514954335.8,286047002.2,N
1514954355.6,286047003.8,N
1514954375.5,286047003.2,N
1514954395.3,286047001.4,N
1514954415.2,286047004.0,N
1514954435.9,286047004.1,N
1514954455.7,286047003.2,N
1514954475.6,286047002.9,N
1514954495.4,286047001.3,N
1514954515.2,286047001.6,N
1514954535.1,286047004.2,N
1514954536.0,286047004.2,N
1514954555.8,286047007.2,Y
1514954575.7,286047001.8,P
1514954595.5,286047000.5,N
1514954615.3,286047000.5,N
1514954635.2,286047000.6,N
1514954655.0,286047003.9,Y
1514954655.9,286047003.9,P
1514954675.8,286047001.8,N
1514954695.6,286046999.0,N
1514954715.4,286046996.7,N
1514954735.3,286046997.4,N
1514954755.1,286047001.2,N
1514954775.8,286047000.7,N
1514954795.7,286047004.4,N
1514954815.5,286046999.3,N
1514954835.4,286046999.4,N
1514954855.2,286046998.6,N
1514954875.0,286046998.1,N
1514954875.9,286046998.1,N
1514954895.8,286046998.3,N
1514954915.6,286046998.3,N
1514954935.5,286047000.9,N
1514954955.3,286046999.8,N
1514954975.1,286047000.7,N
1514954995.9,286047002.4,N
1514955015.7,286046999.7,N
1514955035.5,286046998.1,N
1514955055.4,286046998.3,N
1514955075.2,286046998.3,N
1514955095.1,286047000.9,N
1514955096.0,286047000.9,N
1514955115.8,286046998.2,N
1514955135.6,286047000.9,N
1514955155.5,286046998.8,N
1514955175.3,286047000.9,N
1514955195.1,286046997.2,N
1514955215.9,286046997.6,N
1514955235.7,286046993.8,Y
1514955255.6,286046998.0,P
1514955275.4,286046999.5,N
1514955295.2,286046996.6,P
1514955315.1,286046998.9,N
1514955316.0,286046998.9,N
1514955335.8,286047000.7,N
1514955355.7,286046999.0,N
1514955375.5,286046998.9,N
1514955395.3,286046999.1,N
1514955415.2,286047001.1,N
1514955435.0,286047002.2,N
1514955435.9,286047002.2,N
1514955455.7,286047001.4,N
1514955475.6,286047000.3,N
1514955495.4,286047002.7,N
1514955515.3,286047001.1,N
1514955535.1,286046998.7,N
1514955536.0,286046998.7,N
1514955555.8,286046998.8,N
1514955575.7,286046998.5,N
1514955595.5,286047000.6,N
